Flag for U.S.A. Weather past 2 weeks in Knoxville, Tennessee, U.S.A.

Now
64 °F

Passing clouds.


Feels Like: 64 °F
Forecast: 60 / 81 °F
Wind: 5 mph from Northeast

Location: McGhee Tyson Airport

Current Time: Sep 20, 2014 at 12:20:35 PM

Latest Report: Sep 20, 2014 at 8:53 AM


Visibility: 10 mi

Pressure: 30.15 "Hg

Humidity: 84%

Dew point: 59 °F

Location of KnoxvilleLocation

Historic Weather in Knoxville — Graph

°F

Knoxville temperature yesterday

Maximum temperature yesterday: 85 °F (at 3:53 PM)
Minimum temperature yesterday: 57 °F (at 6:53 AM)
Average temperature yesterday: 70 °F

Past Weeks' High & Low Weather Summary

 TemperatureHumidityPressure
High89 °F (Sep 11, 3:53 PM)100% (Sep 7, 3:53 AM)30.21 "Hg (Sep 7, 3:53 AM)
Low57 °F (Sep 19, 6:53 AM)39% (Sep 17, 4:53 PM)29.90 "Hg (Sep 17, 3:53 PM)
Average73 °F78%30.04 "Hg
* Reported Sep 5 8:53 AM — Sep 20 8:53 AM, Knoxville, Weather by CustomWeather, © 2014

Note: Actual official high and low records may vary slightly from our data, if they occured in-between our weather recording intervals... More about our weather records

Advertising

Knoxville weather history for previous 24 hours

 ConditionsComfort  
Time TempWeatherWind HumidityBarometerVisibility
8:53 AM
Sep 20
64 °FPassing clouds.5 mph84%30.15 "Hg10 mi
7:53 AM60 °FPassing clouds.5 mph93%30.15 "Hg10 mi
6:53 AM60 °FClear.No wind96%30.12 "Hg8 mi
5:53 AM61 °FClear.No wind97%30.11 "Hg8 mi
4:53 AM64 °FClear.7 mph90%30.10 "Hg10 mi
3:53 AM64 °FClear.5 mph90%30.10 "Hg10 mi
2:53 AM65 °FClear.3 mph87%30.10 "Hg10 mi
12:53 AM71 °FPassing clouds.6 mph68%30.09 "Hg10 mi
11:53 PM
Sep 19
73 °FPassing clouds.9 mph62%30.09 "Hg10 mi
10:53 PM72 °FPassing clouds.10 mph66%30.09 "Hg10 mi
9:53 PM73 °FOvercast.7 mph71%30.08 "Hg10 mi
8:53 PM72 °FPassing clouds.No wind81%30.07 "Hg10 mi
7:53 PM75 °FPartly sunny.3 mph66%30.05 "Hg10 mi
6:53 PM81 °FBroken clouds.No wind49%30.03 "Hg10 mi
4:53 PM83 °FScattered clouds.5 mph44%30.01 "Hg5 mi
3:53 PM85 °FScattered clouds.8 mph43%30.02 "Hg10 mi
2:53 PM82 °FPassing clouds.3 mph48%30.03 "Hg10 mi
1:53 PM80 °FPassing clouds.No wind49%30.05 "Hg10 mi
12:53 PM78 °FPassing clouds.3 mph54%30.06 "Hg10 mi
Weather by CustomWeather, © 2014

See weather overviewHow to use our weather pages